CLH876 LFSB-EDDF

Flight info

Callsign CLH876
Flight time 0h 44m
Altitude 21000
Route ELBEG Y715 AMRUP Z141 MOPAN DCT KOVAN T163 SPESA SPESA5C
Aircraft E190/M-SDE3GILORVW/S

Departure

Time 2026-04-14 15:49
Airport EuroAirport Basel–Mulhouse–Freiburg (LFSB)

Arrival

Time 2026-04-14 16:34
Airport Frankfurt Main Airport (EDDF)
Time Latitude Longitude Altitude Speed Heading
2026-04-14 15:35 47.59834 7.52810 885 ft 0 kts 69°
2026-04-14 15:45 47.59827 7.52783 885 ft 4 kts 78°
2026-04-14 15:45 47.59826 7.52745 885 ft 4 kts 109°
2026-04-14 15:45 47.59838 7.52720 885 ft 1 kts 159°
2026-04-14 15:45 47.59839 7.52719 885 ft 0 kts 159°
2026-04-14 15:46 47.59835 7.52721 885 ft 3 kts 159°
2026-04-14 15:46 47.59777 7.52758 885 ft 15 kts 155°
2026-04-14 15:47 47.59665 7.52838 885 ft 19 kts 153°
2026-04-14 15:47 47.59558 7.52919 886 ft 15 kts 154°
2026-04-14 15:47 47.59496 7.52887 886 ft 9 kts 227°
2026-04-14 15:47 47.59462 7.52814 887 ft 8 kts 246°
2026-04-14 15:48 47.59441 7.52746 890 ft 6 kts 246°
2026-04-14 15:48 47.59428 7.52705 892 ft 5 kts 245°
2026-04-14 15:48 47.59422 7.52631 892 ft 11 kts 289°
2026-04-14 15:48 47.59544 7.52529 891 ft 39 kts 334°
2026-04-14 15:49 47.60009 7.52210 892 ft 108 kts 335°
2026-04-14 15:49 47.60879 7.51614 946 ft 160 kts 336°
2026-04-14 15:49 47.61871 7.50924 1838 ft 156 kts 336°
2026-04-14 15:49 47.62980 7.50139 2156 ft 193 kts 336°
2026-04-14 15:50 47.64258 7.49245 2694 ft 214 kts 336°
2026-04-14 15:50 47.65657 7.48271 3349 ft 229 kts 335°
2026-04-14 15:50 47.67103 7.47250 4252 ft 231 kts 335°
2026-04-14 15:50 47.68560 7.46241 5195 ft 231 kts 339°
2026-04-14 15:51 47.70118 7.45855 6038 ft 230 kts 10°
2026-04-14 15:51 47.71564 7.46821 6826 ft 231 kts 39°
2026-04-14 15:51 47.72532 7.48730 7520 ft 237 kts 68°
2026-04-14 15:51 47.72768 7.51126 8198 ft 242 kts 92°
2026-04-14 15:52 47.72573 7.53635 8887 ft 247 kts 97°
2026-04-14 15:52 47.72295 7.56174 9577 ft 251 kts 98°
2026-04-14 15:52 47.72010 7.58750 10306 ft 254 kts 98°
2026-04-14 15:52 47.71712 7.61358 11049 ft 258 kts 99°
2026-04-14 15:53 47.71385 7.63993 11794 ft 261 kts 100°
2026-04-14 15:53 47.71033 7.66659 12560 ft 264 kts 101°
2026-04-14 15:53 47.70655 7.69347 13331 ft 268 kts 102°
2026-04-14 15:53 47.70232 7.72059 14096 ft 271 kts 103°
2026-04-14 15:54 47.70038 7.77867 14887 ft 307 kts 72°
2026-04-14 15:54 47.70788 7.80942 15228 ft 327 kts 68°
2026-04-14 15:54 47.71662 7.84176 15549 ft 347 kts 68°
2026-04-14 15:55 47.72580 7.87596 15894 ft 365 kts 68°
2026-04-14 15:55 47.73521 7.91141 16547 ft 371 kts 68°
2026-04-14 15:55 47.74466 7.94726 17287 ft 374 kts 68°
2026-04-14 15:55 47.75420 7.98335 18021 ft 377 kts 68°
2026-04-14 15:56 47.76388 8.01976 18743 ft 381 kts 67°
2026-04-14 15:56 47.77721 8.05382 19317 ft 385 kts 47°
2026-04-14 15:56 47.79859 8.07742 19950 ft 387 kts 23°
2026-04-14 15:56 47.82458 8.08746 20586 ft 388 kts
2026-04-14 15:57 47.85150 8.09236 21154 ft 392 kts
2026-04-14 15:57 47.87896 8.09707 21351 ft 401 kts
2026-04-14 15:57 47.90678 8.10129 21350 ft 403 kts
2026-04-14 15:57 47.93481 8.10543 21202 ft 405 kts
2026-04-14 15:58 47.96272 8.10950 21189 ft 403 kts
2026-04-14 15:58 47.99069 8.11383 21194 ft 404 kts
2026-04-14 15:58 48.01866 8.11817 21194 ft 404 kts
2026-04-14 15:58 48.04663 8.12256 21203 ft 404 kts
2026-04-14 15:59 48.07461 8.12694 21200 ft 405 kts
2026-04-14 15:59 48.10266 8.13119 21189 ft 405 kts
2026-04-14 15:59 48.13026 8.13548 21196 ft 404 kts
2026-04-14 15:59 48.15827 8.13987 21205 ft 405 kts
2026-04-14 16:00 48.18628 8.14426 21204 ft 405 kts
2026-04-14 16:00 48.21428 8.14864 21207 ft 405 kts
2026-04-14 16:00 48.24193 8.15634 21209 ft 406 kts 18°
2026-04-14 16:00 48.26681 8.17632 21226 ft 409 kts 38°
2026-04-14 16:01 48.28772 8.20524 21245 ft 409 kts 44°
2026-04-14 16:01 48.30799 8.23524 21207 ft 410 kts 44°
2026-04-14 16:01 48.32839 8.26515 21204 ft 409 kts 44°
2026-04-14 16:01 48.34877 8.29503 21196 ft 409 kts 43°
2026-04-14 16:02 48.36916 8.32487 21199 ft 409 kts 43°
2026-04-14 16:02 48.38956 8.35475 21198 ft 409 kts 43°
2026-04-14 16:02 48.40996 8.38464 21202 ft 409 kts 43°
2026-04-14 16:02 48.43037 8.41458 21199 ft 410 kts 43°
2026-04-14 16:03 48.45082 8.44458 21200 ft 410 kts 43°
2026-04-14 16:03 48.47123 8.47459 21201 ft 410 kts 43°
2026-04-14 16:03 48.49167 8.50466 21198 ft 410 kts 43°
2026-04-14 16:03 48.51209 8.53474 21201 ft 410 kts 44°
2026-04-14 16:04 48.53251 8.56483 21202 ft 410 kts 44°
2026-04-14 16:04 48.55291 8.59494 21202 ft 410 kts 44°
2026-04-14 16:04 48.57331 8.62510 21203 ft 410 kts 44°
2026-04-14 16:04 48.59370 8.65529 21198 ft 410 kts 44°
2026-04-14 16:05 48.61407 8.68547 21201 ft 410 kts 44°
2026-04-14 16:05 48.62756 8.70547 21201 ft 411 kts 44°
2026-04-14 16:05 48.65481 8.74595 21196 ft 411 kts 44°
2026-04-14 16:05 48.67493 8.77586 21193 ft 411 kts 44°
2026-04-14 16:06 48.69528 8.80616 21191 ft 411 kts 44°
2026-04-14 16:06 48.71562 8.83649 21193 ft 411 kts 44°
2026-04-14 16:06 48.73598 8.86686 21195 ft 411 kts 44°
2026-04-14 16:06 48.75633 8.89726 21196 ft 411 kts 44°
2026-04-14 16:07 48.77008 8.91783 21173 ft 411 kts 44°
2026-04-14 16:07 48.79040 8.94824 21167 ft 411 kts 44°
2026-04-14 16:07 48.81074 8.97872 21193 ft 411 kts 44°
2026-04-14 16:07 48.83107 9.00921 21194 ft 411 kts 44°
2026-04-14 16:08 48.85139 9.03969 21194 ft 411 kts 44°
2026-04-14 16:08 48.87276 9.06836 21208 ft 410 kts 34°
2026-04-14 16:08 48.89834 9.08677 21209 ft 408 kts 14°
2026-04-14 16:08 48.92630 9.09284 21220 ft 406 kts
2026-04-14 16:09 48.95451 9.09589 21211 ft 407 kts
2026-04-14 16:09 48.98272 9.09915 21194 ft 406 kts
2026-04-14 16:09 49.01087 9.10246 21193 ft 406 kts
2026-04-14 16:09 49.03901 9.10628 21190 ft 406 kts
2026-04-14 16:10 49.06714 9.11040 21190 ft 406 kts
2026-04-14 16:10 49.09527 9.11448 21193 ft 406 kts
2026-04-14 16:10 49.12302 9.11852 21192 ft 406 kts
2026-04-14 16:10 49.15117 9.12259 21172 ft 406 kts
2026-04-14 16:11 49.17923 9.12668 21170 ft 406 kts
2026-04-14 16:11 49.20701 9.13073 21180 ft 406 kts
2026-04-14 16:11 49.23508 9.13470 21182 ft 406 kts
2026-04-14 16:11 49.26321 9.13869 21183 ft 406 kts
2026-04-14 16:12 49.29136 9.14271 21184 ft 406 kts
2026-04-14 16:12 49.31949 9.14672 21186 ft 406 kts
2026-04-14 16:12 49.34761 9.15072 21184 ft 406 kts
2026-04-14 16:12 49.36660 9.15343 21197 ft 406 kts
2026-04-14 16:13 49.40384 9.15875 21192 ft 406 kts
2026-04-14 16:13 49.43200 9.16279 21202 ft 406 kts
2026-04-14 16:13 49.46012 9.16678 21202 ft 406 kts
2026-04-14 16:13 49.48827 9.17085 21197 ft 406 kts
2026-04-14 16:14 49.51639 9.17489 21196 ft 406 kts
2026-04-14 16:14 49.54449 9.17898 21108 ft 404 kts
2026-04-14 16:14 49.57225 9.18300 20767 ft 397 kts
2026-04-14 16:14 49.59954 9.18692 20420 ft 393 kts
2026-04-14 16:15 49.62680 9.19086 19846 ft 391 kts
2026-04-14 16:15 49.65319 9.19983 19292 ft 389 kts 21°
2026-04-14 16:15 49.67585 9.22180 18806 ft 385 kts 42°
2026-04-14 16:15 49.69460 9.25109 18281 ft 383 kts 46°
2026-04-14 16:16 49.71275 9.28098 17747 ft 379 kts 44°
2026-04-14 16:16 49.73393 9.30457 17272 ft 375 kts 24°
2026-04-14 16:16 49.75871 9.31607 16794 ft 371 kts 11°
2026-04-14 16:16 49.78402 9.32340 16352 ft 368 kts
2026-04-14 16:17 49.80943 9.32382 15891 ft 365 kts 350°
2026-04-14 16:17 49.83300 9.31041 15380 ft 361 kts 327°
2026-04-14 16:17 49.85124 9.28452 14870 ft 354 kts 305°
2026-04-14 16:17 49.86191 9.25104 14381 ft 343 kts 288°
2026-04-14 16:18 49.86920 9.21624 13882 ft 336 kts 287°
2026-04-14 16:18 49.87646 9.18219 13369 ft 330 kts 288°
2026-04-14 16:18 49.88398 9.14886 12863 ft 325 kts 289°
2026-04-14 16:18 49.89182 9.11626 12363 ft 320 kts 290°
2026-04-14 16:19 49.90000 9.08437 11864 ft 316 kts 291°
2026-04-14 16:19 49.90854 9.05311 11367 ft 313 kts 293°
2026-04-14 16:19 49.92003 9.02476 10866 ft 310 kts 309°
2026-04-14 16:19 49.93268 8.99790 10359 ft 307 kts 298°
2026-04-14 16:20 49.94100 8.96771 9851 ft 302 kts 287°
2026-04-14 16:20 49.94642 8.93701 9337 ft 287 kts 284°
2026-04-14 16:20 49.95098 8.90762 8821 ft 274 kts 284°
2026-04-14 16:20 49.95532 8.87936 8331 ft 264 kts 285°
2026-04-14 16:21 49.95947 8.85252 8177 ft 244 kts 285°
2026-04-14 16:21 49.96363 8.82706 8187 ft 245 kts 286°
2026-04-14 16:21 49.96789 8.80138 8204 ft 247 kts 286°
2026-04-14 16:21 49.97215 8.77561 8217 ft 245 kts 286°
2026-04-14 16:22 49.97634 8.74983 8223 ft 247 kts 285°
2026-04-14 16:22 49.97924 8.72349 8223 ft 249 kts 275°
2026-04-14 16:22 49.97794 8.69672 8220 ft 250 kts 257°
2026-04-14 16:22 49.97250 8.67098 8231 ft 252 kts 251°
2026-04-14 16:23 49.96620 8.64555 8170 ft 253 kts 250°
2026-04-14 16:23 49.95988 8.62021 8184 ft 251 kts 250°
2026-04-14 16:23 49.95364 8.59499 8180 ft 251 kts 250°
2026-04-14 16:23 49.94749 8.56995 8182 ft 252 kts 250°
2026-04-14 16:24 49.94116 8.54422 8186 ft 252 kts 250°
2026-04-14 16:24 49.93498 8.51912 8170 ft 252 kts 250°
2026-04-14 16:24 49.92859 8.49313 7683 ft 264 kts 250°
2026-04-14 16:24 49.92211 8.46662 7157 ft 259 kts 251°
2026-04-14 16:25 49.91594 8.44099 6669 ft 247 kts 251°
2026-04-14 16:25 49.91006 8.41645 6171 ft 240 kts 251°
2026-04-14 16:25 49.90421 8.39228 5661 ft 240 kts 251°
2026-04-14 16:25 49.89839 8.36814 5154 ft 239 kts 251°
2026-04-14 16:26 49.89258 8.34397 4653 ft 238 kts 251°
2026-04-14 16:26 49.88682 8.31999 4154 ft 236 kts 251°
2026-04-14 16:26 49.88203 8.29620 4088 ft 227 kts 266°
2026-04-14 16:26 49.88506 8.27301 4738 ft 208 kts 297°
2026-04-14 16:27 49.89064 8.25289 5586 ft 211 kts 294°
2026-04-14 16:27 49.89641 8.22989 4626 ft 239 kts 293°
2026-04-14 16:27 49.90267 8.20636 4098 ft 226 kts 301°
2026-04-14 16:27 49.91315 8.19128 3961 ft 196 kts 336°
2026-04-14 16:28 49.92622 8.18782 3570 ft 186 kts
2026-04-14 16:28 49.93802 8.19477 3189 ft 194 kts 38°
2026-04-14 16:28 49.94823 8.20903 3450 ft 194 kts 51°
2026-04-14 16:28 49.95363 8.22620 4397 ft 177 kts 70°
2026-04-14 16:29 49.95670 8.24607 4453 ft 192 kts 74°
2026-04-14 16:29 49.96014 8.26711 4339 ft 207 kts 72°
2026-04-14 16:29 49.96669 8.28734 3720 ft 209 kts 56°
2026-04-14 16:29 49.97336 8.30655 3409 ft 197 kts 66°
2026-04-14 16:30 49.97762 8.32624 3123 ft 188 kts 71°
2026-04-14 16:30 49.98192 8.34469 2895 ft 175 kts 66°
2026-04-14 16:30 49.98632 8.36172 2644 ft 163 kts 68°
2026-04-14 16:30 49.99008 8.37751 2422 ft 150 kts 69°
2026-04-14 16:31 49.99345 8.39154 2238 ft 141 kts 69°
2026-04-14 16:31 49.99677 8.40570 2042 ft 137 kts 69°
2026-04-14 16:31 50.00014 8.41946 1875 ft 136 kts 69°
2026-04-14 16:31 50.00347 8.43338 1707 ft 138 kts 70°
2026-04-14 16:32 50.00683 8.44742 1516 ft 139 kts 70°
2026-04-14 16:32 50.01019 8.46147 1334 ft 140 kts 68°
2026-04-14 16:32 50.01360 8.47578 1150 ft 142 kts 67°
2026-04-14 16:32 50.01707 8.49015 951 ft 142 kts 68°
2026-04-14 16:33 50.02044 8.50451 769 ft 141 kts 68°
2026-04-14 16:33 50.02386 8.51870 586 ft 140 kts 69°
2026-04-14 16:33 50.02726 8.53286 405 ft 136 kts 69°
2026-04-14 16:33 50.03024 8.54523 350 ft 93 kts 71°
2026-04-14 16:34 50.03172 8.55137 348 ft 51 kts 71°
2026-04-14 16:34 50.03301 8.55648 351 ft 41 kts 59°
2026-04-14 16:34 50.03457 8.55881 344 ft 20 kts 39°
2026-04-14 16:34 50.03568 8.56022 346 ft 21 kts 39°
2026-04-14 16:35 50.03667 8.56194 349 ft 22 kts 62°
2026-04-14 16:35 50.03724 8.56417 353 ft 23 kts 69°
2026-04-14 16:35 50.03782 8.56651 351 ft 24 kts 69°
2026-04-14 16:35 50.03840 8.56896 347 ft 25 kts 70°
2026-04-14 16:36 50.03899 8.57151 347 ft 25 kts 70°
2026-04-14 16:36 50.03960 8.57413 348 ft 26 kts 70°
2026-04-14 16:36 50.04025 8.57682 350 ft 27 kts 69°
2026-04-14 16:36 50.04092 8.57959 347 ft 28 kts 70°
2026-04-14 16:37 50.04158 8.58243 351 ft 28 kts 70°
2026-04-14 16:37 50.04227 8.58532 355 ft 29 kts 69°
2026-04-14 16:37 50.04300 8.58825 344 ft 29 kts 69°
2026-04-14 16:37 50.04372 8.59123 350 ft 30 kts 71°
2026-04-14 16:38 50.04428 8.59381 352 ft 19 kts 71°
2026-04-14 16:38 50.04504 8.59472 348 ft 14 kts
2026-04-14 16:38 50.04546 8.59468 351 ft 1 kts 354°
2026-04-14 16:38 50.04550 8.59467 344 ft 0 kts 354°
2026-04-14 16:39 50.04552 8.59467 344 ft 1 kts 354°
2026-04-14 16:40 50.04592 8.59462 344 ft 8 kts 355°
2026-04-14 16:40 50.04655 8.59453 348 ft 10 kts 355°
2026-04-14 16:40 50.04727 8.59429 348 ft 11 kts 342°
2026-04-14 16:40 50.04767 8.59408 344 ft 1 kts 340°
2026-04-14 16:41 50.04776 8.59402 344 ft 3 kts 339°
2026-04-14 16:41 50.04814 8.59378 347 ft 10 kts 336°
2026-04-14 16:41 50.04885 8.59365 344 ft 11 kts
2026-04-14 16:41 50.04966 8.59355 346 ft 13 kts 334°
2026-04-14 16:42 50.05050 8.59293 354 ft 14 kts 334°
2026-04-14 16:42 50.05074 8.59172 348 ft 13 kts 251°
2026-04-14 16:42 50.05002 8.59138 352 ft 9 kts 153°
2026-04-14 16:42 50.04978 8.59152 344 ft 0 kts 159°